Change the Weather History Date:

Friday, March 22, 2013

  Actual Average Record
Temperature  
Mean Temperature 60 °F -  
Max Temperature 69 °F 59 °F 71 °F (2003)
Min Temperature 50 °F 45 °F 33 °F (2007)
Degree Days  
Heating Degree Days 5    
Growing Degree Days 10 (Base 50)    
Moisture  
Dew Point 39 °F    
Average Humidity 49    
Maximum Humidity 94    
Minimum Humidity 30    
Precipitation  
Precipitation 0.00 in - - ()
Sea Level Pressure  
Sea Level Pressure 29.64 in    
Wind  
Wind Speed 7 mph ()    
Max Wind Speed 16 mph    
Max Gust Speed 26 mph    
Visibility 6.0 miles    
Events Rain , Thunderstorm    
Averages and records for this station are not official NWS values.
T = Trace of Precipitation, MM = Missing Value Source: Averaged Metar Reports

Daily Weather History Graph

Daily Weather History Graph

Search for Another Location

Airport or City:

Trip Planner

Search our weather history database for the weather conditions in past years. The results will help you decide how hot, cold, wet, or windy it might be!

Date:

Astronomy

Mar. 22, 2013 Rise Set
Actual Time 7:05 AM CET 7:20 PM CET
Civil Twilight 6:37 AM CET 7:49 PM CET
Nautical Twilight 6:03 AM CET 8:23 PM CET
Astronomical Twilight 5:29 AM CET 8:57 PM CET
Moon 2:26 PM CET (3/22) 4:04 AM CET (3/22)
Length of Visible Light 13h 12m
Length of Day
12h 15m
Waxing Gibbous, 75% of the Moon is Illuminated
Mar 22
Waxing Gibbous
Mar 27
Full
Apr 3
Last Quarter
Apr 10
New
Apr 18
First Quarter

Hourly Weather History & Observations

Time (CET) Temp. Dew Point Humidity Pressure Visibility Wind Dir Wind Speed Gust Speed Precip Events Conditions
12:00 AM 62.6 °F 33.8 °F 34% 29.74 in 6.2 mi SSE 9.2 mph - N/A   Unknown
12:30 AM 62.6 °F 33.8 °F 34% 29.74 in 6.2 mi South 8.1 mph - N/A   Unknown
1:00 AM 62.6 °F 32.0 °F 32% 29.71 in 6.2 mi Variable 8.1 mph - N/A   Unknown
1:30 AM 64.4 °F 32.0 °F 30% 29.71 in 6.2 mi South 10.4 mph - N/A   Unknown
2:00 AM 62.6 °F 32.0 °F 32% 29.71 in 6.2 mi South 9.2 mph - N/A   Unknown
2:30 AM 62.6 °F 32.0 °F 32% 29.68 in 6.2 mi South 11.5 mph - N/A   Unknown
3:00 AM 62.6 °F 32.0 °F 32% 29.68 in 6.2 mi South 10.4 mph - N/A   Unknown
3:30 AM 62.6 °F 33.8 °F 34% 29.68 in 6.2 mi South 9.2 mph - N/A   Unknown
4:00 AM 62.6 °F 33.8 °F 34% 29.65 in 6.2 mi South 8.1 mph - N/A   Unknown
4:30 AM 62.6 °F 33.8 °F 34% 29.65 in 6.2 mi SSE 8.1 mph - N/A   Unknown
5:00 AM 62.6 °F 33.8 °F 34% 29.65 in 6.2 mi South 8.1 mph - N/A   Unknown
5:30 AM 62.6 °F 33.8 °F 34% 29.62 in 6.2 mi South 3.5 mph - N/A   Unknown
6:00 AM 60.8 °F 33.8 °F 36% 29.62 in - SSE 4.6 mph - N/A   Clear
6:30 AM 60.8 °F 33.8 °F 36% 29.62 in - Variable 4.6 mph - N/A   Clear
7:00 AM 60.8 °F 33.8 °F 36% 29.62 in - South 5.8 mph - N/A   Clear
7:30 AM 60.8 °F 35.6 °F 39% 29.59 in - Variable 3.5 mph - N/A   Clear
8:00 AM 62.6 °F 35.6 °F 37% 29.62 in - SE 4.6 mph - N/A   Clear
8:30 AM 62.6 °F 33.8 °F 34% 29.59 in - SSE 5.8 mph - N/A   Clear
9:00 AM 62.6 °F 33.8 °F 34% 29.59 in - SSE 3.5 mph - N/A   Clear
9:45 AM 62.6 °F 35.6 °F 37% 29.59 in - Variable 2.3 mph - N/A   Clear
10:00 AM 62.6 °F 33.8 °F 34% 29.59 in - Variable 5.8 mph - N/A   Clear
10:30 AM 64.4 °F 35.6 °F 34% 29.59 in - South 8.1 mph - N/A   Clear
11:00 AM 64.4 °F 35.6 °F 34% 29.59 in - South 10.4 mph - N/A   Clear
11:30 AM 66.2 °F 35.6 °F 32% 29.59 in - South 10.4 mph 24.2 mph N/A   Clear
12:00 PM 66.2 °F 37.4 °F 35% 29.59 in - SSW 12.7 mph 26.5 mph N/A   Clear
12:30 PM 66.2 °F 37.4 °F 35% 29.56 in - Variable 9.2 mph - N/A   Clear
1:00 PM 69.8 °F 37.4 °F 31% 29.59 in - SSW 11.5 mph 24.2 mph N/A   Clear
1:30 PM 68.0 °F 39.2 °F 35% 29.56 in - Variable 6.9 mph - N/A   Clear
2:00 PM 68.0 °F 39.2 °F 35% 29.56 in - Variable 8.1 mph 19.6 mph N/A   Clear
2:30 PM 66.2 °F 39.2 °F 37% 29.59 in - SW 8.1 mph 20.7 mph N/A   Clear
3:00 PM 66.2 °F 41.0 °F 40% 29.56 in - SSW 8.1 mph - N/A   Clear
3:30 PM 66.2 °F 39.2 °F 37% 29.56 in - SSW 5.8 mph - N/A   Clear
4:00 PM 66.2 °F 41.0 °F 40% 29.56 in - Variable 5.8 mph - N/A   Clear
4:30 PM 62.6 °F 41.0 °F 45% 29.56 in - NNW 12.7 mph - N/A   Clear
5:00 PM 60.8 °F 42.8 °F 52% 29.59 in 6.2 mi WNW 12.7 mph - N/A Rain Light Rain Showers
5:30 PM 57.2 °F 46.4 °F 67% 29.62 in 6.2 mi West 16.1 mph - N/A Rain Light Rain Showers
6:00 PM 57.2 °F 46.4 °F 67% 29.62 in 6.2 mi WNW 10.4 mph - N/A Rain Light Rain Showers
6:08 PM 55.4 °F 46.4 °F 72% 29.62 in 5.6 mi WNW 8.1 mph - N/A Rain , Thunderstorm Light Thunderstorms and Rain
6:30 PM 53.6 °F 48.2 °F 82% 29.65 in 3.7 mi NW 10.4 mph - N/A Rain Light Rain Showers
7:00 PM 53.6 °F 48.2 °F 82% 29.68 in 3.7 mi NNW 11.5 mph - N/A Rain Light Rain Showers
7:30 PM 51.8 °F 50.0 °F 94% 29.68 in 6.2 mi NNE 4.6 mph - N/A Rain Light Rain Showers
8:00 PM 51.8 °F 48.2 °F 88% 29.71 in 6.2 mi Variable 3.5 mph - N/A   Mostly Cloudy
8:30 PM 51.8 °F 50.0 °F 94% 29.71 in 6.2 mi Variable 3.5 mph - N/A   Overcast
9:00 PM 51.8 °F 48.2 °F 88% 29.71 in 6.2 mi Variable 2.3 mph - N/A   Mostly Cloudy
9:30 PM 51.8 °F 48.2 °F 88% 29.74 in 6.2 mi SSE 3.5 mph - N/A   Overcast
10:00 PM 51.8 °F 48.2 °F 88% 29.74 in 6.2 mi ESE 3.5 mph - N/A   Mostly Cloudy
10:30 PM 51.8 °F 48.2 °F 88% 29.74 in 6.2 mi SSE 3.5 mph - N/A   Overcast
11:00 PM 51.8 °F 48.2 °F 88% 29.74 in 6.2 mi Variable 2.3 mph - N/A   Overcast
11:30 PM 50.0 °F 48.2 °F 94% 29.74 in 6.2 mi SE 3.5 mph - N/A   Mostly Cloudy